When you browse on this site, cookies collect data to enhance your experience and personalize the content and advertising you see.
Visit our Privacy Policy to learn more. By continuing to use the site, you agree to this use of cookies and data.
  • In Romania
  • List of Countries
  • For 7 days
  • Water Temperature
  • Satellite Maps
  • Weather Map
  • Weather Widgets
  • user-avatar
    Login

    Hourly Weather Kotagiri

    Today, 14 December, Friday

    Time Temperature Precipitation Wind Pressure Humidity
    00:00 +15°C° 0 mm 1 mps 619 mmHg 79%
    01:00 +14°C° 0 mm 1 mps 619 mmHg 80%
    02:00 +14°C° 0 mm 1 mps 619 mmHg 81%
    03:00 +14°C° 0 mm 1 mps 619 mmHg 83%
    04:00 +13°C° 0 mm 1 mps 618 mmHg 84%
    05:00 +12°C° 0 mm 0 mps 618 mmHg 86%
    06:00 +13°C° 0 mm 0 mps 619 mmHg 81%
    07:00 +15°C° 0 mm 1 mps 620 mmHg 76%
    08:00 +18°C° 0 mm 1 mps 620 mmHg 71%
    09:00 +19°C° 0 mm 1 mps 621 mmHg 63%
    10:00 +21°C° 0 mm 1 mps 621 mmHg 56%
    11:00 +23°C° 0 mm 1 mps 622 mmHg 48%
    12:00 +23°C° 0 mm 1 mps 622 mmHg 46%
    13:00 +24°C° 0 mm 1 mps 621 mmHg 44%
    14:00 +24°C° 0 mm 1 mps 621 mmHg 42%
    15:00 +23°C° 0 mm 1 mps 620 mmHg 46%
    16:00 +22°C° 0 mm 1 mps 620 mmHg 51%
    17:00 +20°C° 0 mm 1 mps 619 mmHg 55%
    18:00 +19°C° 0 mm 1 mps 619 mmHg 57%
    19:00 +18°C° 0 mm 1 mps 619 mmHg 59%
    20:00 +16°C° 0 mm 1 mps 619 mmHg 61%
    21:00 +15°C° 0 mm 1 mps 619 mmHg 62%
    22:00 +15°C° 0 mm 1 mps 619 mmHg 63%
    23:00 +14°C° 0 mm 1 mps 619 mmHg 63%

    Tomorrow, 15 December, Saturday

    Time Temperature Precipitation Wind Pressure Humidity
    00:00 +14°C° 0 mm 1 mps 619 mmHg 65%
    01:00 +14°C° 0 mm 1 mps 618 mmHg 67%
    02:00 +13°C° 0 mm 1 mps 618 mmHg 69%
    03:00 +13°C° 0 mm 1 mps 618 mmHg 72%
    04:00 +13°C° 0 mm 1 mps 617 mmHg 75%
    05:00 +12°C° 0 mm 1 mps 617 mmHg 77%
    06:00 +13°C° 0 mm 1 mps 618 mmHg 76%
    07:00 +14°C° 0 mm 1 mps 619 mmHg 74%
    08:00 +15°C° 0 mm 1 mps 619 mmHg 72%
    09:00 +16°C° 0 mm 1 mps 620 mmHg 65%
    10:00 +18°C° 0 mm 1 mps 620 mmHg 59%
    11:00 +18°C° 0 mm 2 mps 621 mmHg 53%
    12:00 +19°C° 0 mm 2 mps 620 mmHg 52%
    13:00 +19°C° 0 mm 2 mps 620 mmHg 50%
    14:00 +19°C° 0 mm 2 mps 619 mmHg 49%
    15:00 +18°C° 0 mm 2 mps 619 mmHg 55%
    16:00 +18°C° 0 mm 1 mps 619 mmHg 60%
    17:00 +16°C° 0 mm 1 mps 618 mmHg 65%
    18:00 +15°C° 0 mm 1 mps 618 mmHg 68%
    19:00 +15°C° 0 mm 1 mps 619 mmHg 70%
    20:00 +14°C° 0 mm 1 mps 619 mmHg 72%
    21:00 +14°C° 0 mm 1 mps 619 mmHg 73%
    22:00 +13°C° 0 mm 1 mps 619 mmHg 73%
    23:00 +13°C° 0 mm 1 mps 619 mmHg 74%

    Day after tomorrow, 16 December, Sunday

    Time Temperature Precipitation Wind Pressure Humidity
    00:00 +13°C° 0 mm 1 mps 618 mmHg 76%
    01:00 +12°C° 0 mm 1 mps 618 mmHg 78%
    02:00 +12°C° 0 mm 1 mps 617 mmHg 81%
    03:00 +11°C° 0 mm 1 mps 617 mmHg 81%
    04:00 +11°C° 0 mm 1 mps 617 mmHg 82%
    05:00 +11°C° 0 mm 1 mps 617 mmHg 83%
    06:00 +12°C° 0 mm 1 mps 618 mmHg 77%
    07:00 +13°C° 0 mm 1 mps 619 mmHg 70%
    08:00 +15°C° 0 mm 1 mps 620 mmHg 64%
    09:00 +18°C° 0 mm 1 mps 620 mmHg 56%
    10:00 +20°C° 0 mm 1 mps 621 mmHg 49%
    11:00 +22°C° 0 mm 1 mps 621 mmHg 41%
    12:00 +21°C° 0 mm 2 mps 621 mmHg 39%
    13:00 +23°C° 0 mm 2 mps 620 mmHg 37%
    14:00 +23°C° 0 mm 2 mps 620 mmHg 35%
    15:00 +21°C° 0 mm 2 mps 619 mmHg 40%
    16:00 +21°C° 0 mm 1 mps 619 mmHg 45%
    17:00 +20°C° 0 mm 1 mps 618 mmHg 49%
    18:00 +18°C° 0 mm 1 mps 618 mmHg 52%
    19:00 +15°C° 0 mm 1 mps 618 mmHg 55%
    20:00 +14°C° 0 mm 1 mps 618 mmHg 57%
    21:00 +13°C° 0 mm 1 mps 618 mmHg 58%
    22:00 +13°C° 0 mm 1 mps 618 mmHg 59%
    23:00 +13°C° 0 mm 1 mps 618 mmHg 60%

    17 December, Monday

    Time Temperature Precipitation Wind Pressure Humidity
    00:00 +12°C° 0 mm 1 mps 618 mmHg 61%
    01:00 +12°C° 0 mm 1 mps 618 mmHg 62%
    02:00 +12°C° 0 mm 1 mps 617 mmHg 63%
    03:00 +11°C° 0 mm 1 mps 617 mmHg 64%
    04:00 +11°C° 0 mm 1 mps 617 mmHg 65%
    05:00 +10°C° 0 mm 1 mps 617 mmHg 66%
    06:00 +12°C° 0 mm 1 mps 618 mmHg 63%
    07:00 +13°C° 0 mm 0 mps 619 mmHg 59%
    08:00 +14°C° 0 mm 0 mps 620 mmHg 55%
    09:00 +16°C° 0 mm 0 mps 621 mmHg 49%
    10:00 +21°C° 0 mm 1 mps 621 mmHg 43%
    11:00 +23°C° 0 mm 1 mps 622 mmHg 37%
    12:00 +23°C° 0 mm 1 mps 621 mmHg 35%
    13:00 +24°C° 0 mm 1 mps 621 mmHg 33%
    14:00 +24°C° 0 mm 1 mps 620 mmHg 31%
    15:00 +23°C° 0 mm 1 mps 620 mmHg 36%
    16:00 +21°C° 0 mm 1 mps 619 mmHg 42%
    17:00 +20°C° 0 mm 1 mps 618 mmHg 47%
    18:00 +18°C° 0 mm 1 mps 619 mmHg 50%
    19:00 +16°C° 0 mm 1 mps 619 mmHg 52%
    20:00 +14°C° 0 mm 1 mps 619 mmHg 55%
    21:00 +14°C° 0 mm 1 mps 619 mmHg 56%
    22:00 +13°C° 0 mm 1 mps 619 mmHg 58%
    23:00 +13°C° 0 mm 1 mps 619 mmHg 59%

    18 December, Tuesday

    Time Temperature Precipitation Wind Pressure Humidity
    00:00 +13°C° 0 mm 1 mps 618 mmHg 60%
    01:00 +12°C° 0 mm 1 mps 618 mmHg 61%
    02:00 +12°C° 0 mm 1 mps 617 mmHg 62%
    03:00 +12°C° 0 mm 1 mps 617 mmHg 63%
    04:00 +11°C° 0 mm 1 mps 617 mmHg 65%
    05:00 +11°C° 0 mm 1 mps 617 mmHg 67%
    06:00 +13°C° 0 mm 1 mps 618 mmHg 63%
    07:00 +14°C° 0 mm 1 mps 619 mmHg 59%
    08:00 +16°C° 0 mm 1 mps 621 mmHg 56%
    09:00 +19°C° 0 mm 1 mps 621 mmHg 51%
    10:00 +20°C° 0 mm 1 mps 621 mmHg 47%
    11:00 +21°C° 0 mm 2 mps 622 mmHg 42%
    12:00 +21°C° 0 mm 2 mps 621 mmHg 41%
    13:00 +23°C° 0 mm 2 mps 621 mmHg 41%
    14:00 +23°C° 0 mm 1 mps 620 mmHg 40%
    15:00 +22°C° 0 mm 1 mps 619 mmHg 45%
    16:00 +20°C° 0 mm 1 mps 619 mmHg 51%
    17:00 +19°C° 0 mm 1 mps 618 mmHg 56%
    18:00 +18°C° 0 mm 1 mps 618 mmHg 60%
    19:00 +15°C° 0 mm 1 mps 618 mmHg 64%
    20:00 +14°C° 0 mm 1 mps 618 mmHg 67%
    21:00 +14°C° 0 mm 1 mps 618 mmHg 69%
    22:00 +13°C° 0 mm 1 mps 618 mmHg 71%
    23:00 +13°C° 0 mm 1 mps 618 mmHg 73%

    19 December, Wednesday

    Time Temperature Precipitation Wind Pressure Humidity
    00:00 +13°C° 0 mm 1 mps 618 mmHg 75%
    01:00 +13°C° 0 mm 1 mps 617 mmHg 77%
    02:00 +12°C° 0 mm 1 mps 617 mmHg 79%
    03:00 +12°C° 0 mm 1 mps 617 mmHg 82%
    04:00 +12°C° 0 mm 1 mps 617 mmHg 85%
    05:00 +12°C° 0 mm 1 mps 617 mmHg 88%
    06:00 +13°C° 0 mm 1 mps 618 mmHg 85%
    07:00 +14°C° 0 mm 1 mps 619 mmHg 82%
    08:00 +15°C° 0 mm 1 mps 620 mmHg 79%
    09:00 +16°C° 0 mm 1 mps 620 mmHg 72%
    10:00 +19°C° 0 mm 1 mps 621 mmHg 66%
    11:00 +20°C° 0 mm 1 mps 621 mmHg 60%
    12:00 +20°C° 0 mm 2 mps 620 mmHg 58%
    13:00 +20°C° 0 mm 2 mps 620 mmHg 56%
    14:00 +20°C° 0 mm 2 mps 619 mmHg 54%
    15:00 +20°C° 0 mm 1 mps 619 mmHg 59%
    16:00 +19°C° 0 mm 1 mps 619 mmHg 63%
    17:00 +18°C° 0 mm 1 mps 619 mmHg 67%
    18:00 +16°C° 0 mm 1 mps 619 mmHg 71%
    19:00 +15°C° 0 mm 1 mps 619 mmHg 75%
    20:00 +14°C° 0 mm 1 mps 619 mmHg 79%
    21:00 +13°C° 0 mm 1 mps 619 mmHg 79%
    22:00 +13°C° 0 mm 1 mps 618 mmHg 80%
    23:00 +13°C° 0 mm 1 mps 618 mmHg 80%
    Show more